Regional Weather Roundup
Issued by NWS

Home | Current Version | Previous Version | Graphics & Text | Print | Product List | Glossary On
Versions: 1 2 3 4 5 6 7 8 9 10 11 12 13 14 15 16 17 18 19 20 21 22 23 24 25 26 27 28 29 30 31 32 33 34 35 36 37 38 39 40 41 42 43 44 45 46 47 48 49 50
562
ASUS43 KIND 241009
RWRIN

WEATHER ROUNDUP FOR INDIANA
NATIONAL WEATHER SERVICE INDIANAPOLIS IN
600 AM EDT TUE MAY 24 2016

NOTE: "FAIR" INDICATES FEW OR NO CLOUDS BELOW 12,000 FEET WITH NO
SIGNIFICANT WEATHER AND/OR OBSTRUCTIONS TO VISIBILITY.

* - STATION DOES NOT REPORT WEATHER SUCH AS PRECIPITATION OR FOG.

+ - STATION NOT QUALITY CONTROLLED BY THE NATIONAL WEATHER SERVICE.
    USE DATA WITH CAUTION...ESPECIALLY DEWPOINT AND RELATIVE
    HUMIDITY OBSERVATIONS.

INZ001>003-010>013-019-020-241100-
NORTHWEST INDIANA

CITY           SKY/WX    TMP DP  RH WIND       PRES   REMARKS
GARY /AIRPORT/ PTCLDY    64  50  59 S5        29.99R
KNOX *+        CLEAR     55  32  41 SW3       30.01R
LA PORTE +     PTCLDY    55  42  60 CALM      30.01R
MICHIGAN CITY+ CLEAR     61  41  48 S7        30.00R
MONTICELLO +   CLOUDY    57  39  49 S3        30.02R
RENSSELAER +   CLOUDY    59  41  51 S5        30.01R
VALPARAISO     CLOUDY    57  41  55 S3        30.01R

$$

LMZ046-743>745-241100-
SOUTHERN LAKE MICHIGAN

STATION/POSITION TIME  TEMP    WIND        PRES    WAVE
                       AIR SEA DIR/SP/G            HT
                 (UTC) (F)     (DEG/KT/KT) (MB)    (FT)
BURNS HARBOR     1001   63     190/ 11/ 16 1015.9R
MICHIGAN CITY    0900   65     160/ 14/ 17   N/A
5NW MICH CITY    1000   61 56  200/  8/ 10   N/A     1

$$

INZ004-005-014>016-021>024-241100-
NORTH CENTRAL INDIANA

CITY           SKY/WX    TMP DP  RH WIND       PRES   REMARKS
GOSHEN         CLEAR     48  39  71 S3        30.02R
LOGANSPORT +   CLEAR     54  41  62 CALM      30.04R
PERU/GRISSOM   CLEAR     53  42  66 S7        30.02R
ROCHESTER +    CLEAR     61  43  51 SW5       30.03R
SOUTH BEND     CLEAR     55  39  54 SW7       30.02R
WARSAW +       CLEAR     46  43  87 CALM      30.03R

$$

INZ006>009-017-018-025>027-241100-
NORTHEAST INDIANA

CITY           SKY/WX    TMP DP  RH WIND       PRES   REMARKS
ANGOLA *+      CLEAR     46  46 100 CALM      30.03R
AUBURN +       CLEAR     46  43  87 CALM      30.04R
FORT WAYNE     PTCLDY    53  44  71 S5        30.04R
HUNTINGTON +   CLEAR    N/A N/A N/A CALM      30.03S

$$

INZ028-029-035-036-043>045-051>053-241100-
WEST CENTRAL INDIANA

CITY           SKY/WX    TMP DP  RH WIND       PRES   REMARKS
CRAWFORDSVL +  CLEAR     50  46  84 CALM      30.04R
GREENCASTLE +  PTCLDY    50  46  87 CALM      30.04F
LAFAYETTE      CLOUDY    52  45  77 CALM      30.02S
TERRE HAUTE    CLEAR     52  47  83 SE3       30.04R

$$

INZ030>032-037>040-046>048-054>057-064-065-241100-
CENTRAL INDIANA

CITY           SKY/WX    TMP DP  RH WIND       PRES   REMARKS
CP ATTERBURY + CLEAR     45  43  93 CALM      30.07R
FISHERS *+     CLEAR     48  48 100 CALM      30.06R
FRANKFORT +      N/A     52  37  55 CALM      30.05S
GREENWOOD *+   CLEAR     50  46  87 CALM      30.06R
INDIANAPOLIS   MOCLDY    57  44  62 CALM      30.04R
-EAGLE CREEK   CLEAR     51  47  86 CALM      30.05R
KOKOMO *+      CLEAR     52  39  62 SW5       30.04R
MARION +       CLEAR     53  45  73 CALM      30.05R
SHELBYVILLE    CLEAR     54  48  80 SE3       30.06R
ZIONSVILLE +   CLEAR     50  45  82 CALM      30.06R

$$

INZ033-034-041-042-049-050-058-059-241100-
EAST CENTRAL INDIANA

CITY           SKY/WX    TMP DP  RH WIND       PRES   REMARKS
MUNCIE         CLEAR     58  47  66 SW5       30.05R

$$

INZ060-061-067>069-081>083-085>088-241100-
SOUTHWEST INDIANA

CITY           SKY/WX    TMP DP  RH WIND       PRES   REMARKS
EVANSVILLE     CLEAR     55  51  86 CALM      30.04S
HUNTINGBURG *+ PTCLDY    54  45  71 SE3       30.06R
WASHINGTON +   PTCLDY    54  51  90 CALM      30.04R

$$

INZ062-063-066-070>080-084-089>092-241100-
SOUTH CENTRAL AND SOUTHEAST INDIANA

CITY           SKY/WX    TMP DP  RH WIND       PRES   REMARKS
BEDFORD +      CLEAR     50  50 100 CALM      30.05S
BLOOMINGTON    CLEAR     49  46  90 CALM      30.05R
MADISON *+     CLEAR     50  48  93 CALM      30.10R
NORTH VERNON + CLEAR    N/A N/A N/A CALM      30.08R
SEYMOUR +      CLEAR     52  50  93 E3        30.06S

$$





USA.gov is the U.S. government's official web portal to all federal, state and local government web resources and services.